Weather History for EGNH - June, 2014

Change the Weather History Date:

Saturday, June 7, 2014

  Actual Average Record
Temperature  
Mean Temperature 59 °F -  
Max Temperature 63 °F 62 °F 69 °F (1997)
Min Temperature 55 °F 52 °F 41 °F (2005)
Degree Days  
Heating Degree Days 6    
Growing Degree Days 9 (Base 50)    
Moisture  
Dew Point 54 °F    
Average Humidity 81    
Maximum Humidity 100    
Minimum Humidity 60    
Precipitation  
Precipitation 0.20 in - - ()
Sea Level Pressure  
Sea Level Pressure 29.84 in    
Wind  
Wind Speed 10 mph ()    
Max Wind Speed 16 mph    
Max Gust Speed -    
Visibility 5.8 miles    
Events Rain    
Averages and records for this station are not official NWS values.
T = Trace of Precipitation, MM = Missing Value Source: Averaged Metar Reports

Daily Weather History Graph

Daily Weather History Graph

Search for Another Location

Airport or City:

Trip Planner

Search our weather history database for the weather conditions in past years. The results will help you decide how hot, cold, wet, or windy it might be!

Date:

Astronomy

Jun. 07, 2014 Rise Set
Actual Time 4:43 AM BST 9:38 PM BST
Civil Twilight 3:51 AM BST 10:31 PM BST
Nautical Twilight 2:21 AM BST 12:02 AM BST
Astronomical Twilight Sun does not rise Sun does not rise
Moon 2:51 PM BST (6/7) 1:53 AM BST (6/7)
Length of Visible Light 18h 39m
Length of Day
16h 54m
Waxing Gibbous, 65% of the Moon is Illuminated
Jun 7
Waxing Gibbous
Jun 13
Full
Jun 19
Last Quarter
Jun 27
New
Jul 5
First Quarter

Hourly Weather History & Observations

Time (BST) Temp. Dew Point Humidity Pressure Visibility Wind Dir Wind Speed Gust Speed Precip Events Conditions
12:00 AM 61 °F 53 °F 68%  in - East 16.1 mph - -  
1:00 AM 59 °F 51 °F 66%  in - East 15.0 mph - -  
2:00 AM 58 °F 50 °F 68%  in - East 11.5 mph - -  
3:00 AM 57 °F 50 °F 69%  in - East 12.7 mph - -  
4:00 AM 57 °F 49 °F 67%  in - East 12.7 mph - -  
5:00 AM 57 °F 48 °F 65%  in - East 13.8 mph - -  
6:00 AM 58 °F 48 °F 62%  in - East 12.7 mph - -  
6:20 AM 59.0 °F 48.2 °F 67% 29.80 in 6.2 mi East 13.8 mph - N/A   Scattered Clouds
6:50 AM 59.0 °F 50.0 °F 72% 29.80 in 6.2 mi East 12.7 mph - N/A   Scattered Clouds
7:00 AM 59 °F 49 °F 60%  in - East 12.7 mph - -  
7:20 AM 60.8 °F 50.0 °F 68% 29.77 in 6.2 mi East 12.7 mph - N/A   Partly Cloudy
7:50 AM 60.8 °F 51.8 °F 72% 29.80 in 6.2 mi East 13.8 mph - N/A   Scattered Clouds
8:00 AM 60 °F 51 °F 63%  in - East 13.8 mph - -  
8:20 AM 60.8 °F 51.8 °F 72% 29.80 in 6.2 mi East 11.5 mph - N/A   Scattered Clouds
8:50 AM 60.8 °F 51.8 °F 72% 29.83 in 6.2 mi SE 15.0 mph - N/A Rain Light Rain Showers
9:00 AM 60 °F 51 °F 64%  in - SSE 16.1 mph - -  
9:20 AM 59.0 °F 51.8 °F 77% 29.83 in 6.2 mi ESE 12.7 mph - N/A Rain Rain Showers
9:50 AM 57.2 °F 53.6 °F 88% 29.83 in 4.3 mi East 10.4 mph - N/A Rain Rain
10:00 AM 56 °F 54 °F 90%  in - East 10.4 mph - -  
10:20 AM 57.2 °F 55.4 °F 94% 29.77 in 6.2 mi ENE 12.7 mph - N/A Rain Light Rain Showers
10:50 AM 57.2 °F 55.4 °F 94% 29.80 in 6.2 mi East 13.8 mph - N/A Rain Light Rain Showers
11:00 AM 57 °F 55 °F 92%  in - ESE 13.8 mph - -  
11:20 AM 59.0 °F 57.2 °F 94% 29.80 in 6.2 mi East 13.8 mph - N/A   Scattered Clouds
11:50 AM 59.0 °F 57.2 °F 94% 29.83 in 6.2 mi ESE 12.7 mph - N/A Rain Light Rain Showers
12:00 PM 58 °F 56 °F 91%  in - SE 11.5 mph - -  
12:20 PM 59.0 °F 57.2 °F 94% 29.83 in 4.3 mi ESE 6.9 mph - N/A Rain Light Rain Showers
12:50 PM 60.8 °F 57.2 °F 88% 29.83 in 4.3 mi SE 11.5 mph - N/A Rain Light Rain Showers
1:00 PM 59 °F 57 °F 92%  in - SE 12.7 mph - -  
1:20 PM 59.0 °F 57.2 °F 94% 29.83 in 3.7 mi SE 8.1 mph - N/A Rain Rain
1:50 PM 59.0 °F 59.0 °F 100% 29.83 in 3.7 mi SSE 11.5 mph - N/A Rain Rain
2:00 PM 58 °F 58 °F 98%  in - South 11.5 mph - -  
2:20 PM 59.0 °F 59.0 °F 100% 29.83 in 5.0 mi SSE 12.7 mph - N/A Rain Light Rain
2:50 PM 59.0 °F 57.2 °F 94% 29.86 in 5.0 mi South 11.5 mph - N/A Rain Light Rain
3:00 PM 58 °F 57 °F 95%  in - SSW 13.8 mph - -  
3:20 PM 60.8 °F 59.0 °F 94% 29.86 in 6.2 mi SW 11.5 mph - N/A   Mostly Cloudy
3:50 PM 59.0 °F 59.0 °F 100% 29.86 in 6.2 mi WSW 11.5 mph - N/A   Mostly Cloudy
4:00 PM 59 °F 57 °F 92%  in - West 12.7 mph - -  
4:20 PM 60.8 °F 57.2 °F 88% 29.86 in 6.2 mi WSW 8.1 mph - N/A   Mostly Cloudy
4:50 PM 59.0 °F 57.2 °F 94% 29.86 in 6.2 mi WSW 6.9 mph - N/A   Mostly Cloudy
5:00 PM 59 °F 57 °F 90%  in - West 6.9 mph - -  
5:20 PM 60.8 °F 57.2 °F 88% 29.86 in 6.2 mi WNW 4.6 mph - N/A   Scattered Clouds
6:00 PM 62 °F 56 °F 73%  in - West 4.6 mph - -  
6:20 PM 62.6 °F 55.4 °F 77% 29.89 in 6.2 mi Variable 3.5 mph - N/A   Partly Cloudy
6:50 PM 62.6 °F 55.4 °F 77% 29.89 in 6.2 mi WNW 4.6 mph - N/A   Partly Cloudy
7:00 PM 63 °F 55 °F 69%  in - NW 4.6 mph - -  
7:20 PM 62.6 °F 55.4 °F 77% 29.89 in 6.2 mi Variable 2.3 mph - N/A   Partly Cloudy
7:50 PM 62.6 °F 55.4 °F 77% 29.89 in 6.2 mi WSW 2.3 mph - N/A   Partly Cloudy
8:00 PM 63 °F 54 °F 64%  in - West 3.5 mph - -  
8:20 PM 62.6 °F 55.4 °F 77% 29.89 in 6.2 mi Calm Calm - N/A   Partly Cloudy
8:50 PM 60.8 °F 55.4 °F 82% 29.89 in 6.2 mi Calm Calm - N/A   Partly Cloudy
9:00 PM 62 °F 55 °F 71%  in - WSW 1.2 mph - -  
9:20 PM 59.0 °F 53.6 °F 82% 29.92 in 6.2 mi Calm Calm - N/A   Partly Cloudy
10:00 PM 55 °F 52 °F 87%  in - ESE 5.8 mph - -  
11:00 PM 55 °F 53 °F 92%  in - ESE 4.6 mph - -